TimeCDT,TemperatureF,Dew PointF,Humidity,Sea Level PressureIn,VisibilityMPH,Wind Direction,Wind SpeedMPH,Gust SpeedMPH,PrecipitationIn,Events,Conditions,WindDirDegrees,DateUTC
12:14 AM,53.6,42.8,67,29.76,10.0,South,8.1,-,N/A,,Unknown,190,2012-10-09 05:14:00
12:34 AM,53.6,44.6,72,29.77,10.0,South,9.2,-,N/A,,Unknown,190,2012-10-09 05:34:00
12:54 AM,51.8,42.8,71,29.76,10.0,South,6.9,-,N/A,,Mostly Cloudy,190,2012-10-09 05:54:00
1:14 AM,48.2,41.0,76,29.76,10.0,South,8.1,-,N/A,,Scattered Clouds,190,2012-10-09 06:14:00
1:34 AM,51.8,41.0,67,29.76,10.0,South,8.1,-,N/A,,Unknown,190,2012-10-09 06:34:00
1:54 AM,50.0,42.8,76,29.75,10.0,South,8.1,-,N/A,,Clear,180,2012-10-09 06:54:00
2:14 AM,50.0,42.8,76,29.75,10.0,South,8.1,-,N/A,,Clear,180,2012-10-09 07:14:00
2:34 AM,50.0,42.8,76,29.75,10.0,South,8.1,-,N/A,,Scattered Clouds,180,2012-10-09 07:34:00
3:14 AM,51.8,42.8,71,29.75,10.0,South,8.1,-,N/A,,Overcast,180,2012-10-09 08:14:00
3:34 AM,51.8,42.8,71,29.75,10.0,South,10.4,-,N/A,,Drizzle,190,2012-10-09 08:34:00
4:14 AM,51.8,44.6,76,29.75,10.0,South,10.4,-,N/A,,Drizzle,190,2012-10-09 09:14:00
4:34 AM,51.8,44.6,76,29.75,10.0,SSW,10.4,-,0.01,Rain,Light Rain,200,2012-10-09 09:34:00
4:54 AM,51.8,44.6,76,29.75,10.0,South,10.4,-,0.02,,Drizzle,190,2012-10-09 09:54:00
5:14 AM,51.8,46.4,82,29.75,10.0,South,9.2,-,0.01,,Drizzle,190,2012-10-09 10:14:00
5:34 AM,51.8,46.4,82,29.74,7.0,South,8.1,-,0.01,,Drizzle,190,2012-10-09 10:34:00
5:54 AM,51.8,46.4,82,29.75,10.0,SSW,8.1,-,0.01,,Light Drizzle,200,2012-10-09 10:54:00
6:14 AM,51.8,46.4,82,29.75,10.0,SSW,8.1,-,0.01,Rain,Light Rain,210,2012-10-09 11:14:00
6:34 AM,51.8,46.4,82,29.75,10.0,SSW,10.4,-,0.01,Rain,Light Rain,210,2012-10-09 11:34:00
7:14 AM,51.8,44.6,76,29.75,10.0,SSW,9.2,-,N/A,,Mostly Cloudy,210,2012-10-09 12:14:00
7:34 AM,51.8,44.6,76,29.75,10.0,SW,8.1,-,N/A,,Scattered Clouds,230,2012-10-09 12:34:00
7:54 AM,51.8,44.6,76,29.76,10.0,WSW,8.1,-,N/A,,Mostly Cloudy,250,2012-10-09 12:54:00
8:14 AM,51.8,44.6,76,29.76,7.0,West,10.4,-,N/A,,Mostly Cloudy,270,2012-10-09 13:14:00
8:34 AM,51.8,42.8,71,29.77,10.0,WNW,18.4,21.9,N/A,,Scattered Clouds,290,2012-10-09 13:34:00
8:54 AM,50.0,37.4,62,29.78,10.0,WNW,15.0,-,N/A,,Scattered Clouds,300,2012-10-09 13:54:00
9:14 AM,48.2,35.6,62,29.79,10.0,NW,21.9,25.3,N/A,,Clear,320,2012-10-09 14:14:00
9:34 AM,48.2,37.4,66,29.80,10.0,NW,19.6,25.3,N/A,,Mostly Cloudy,310,2012-10-09 14:34:00
9:54 AM,46.4,37.4,71,29.81,10.0,WNW,13.8,-,N/A,,Drizzle,300,2012-10-09 14:54:00
10:14 AM,46.4,37.4,71,29.82,7.0,WNW,12.7,-,N/A,,Drizzle,300,2012-10-09 15:14:00
10:34 AM,46.4,37.4,71,29.83,7.0,WNW,8.1,-,0.01,Rain,Rain,290,2012-10-09 15:34:00
10:54 AM,46.4,37.4,71,29.83,10.0,West,5.8,-,0.01,Rain,Light Rain,270,2012-10-09 15:54:00
11:14 AM,46.4,35.6,66,29.82,10.0,West,8.1,-,N/A,,Drizzle,270,2012-10-09 16:14:00
11:34 AM,46.4,35.6,66,29.82,10.0,West,10.4,-,N/A,,Scattered Clouds,260,2012-10-09 16:34:00
11:54 AM,48.2,37.4,66,29.82,10.0,West,10.4,-,N/A,,Mostly Cloudy,260,2012-10-09 16:54:00
12:14 PM,48.2,35.6,62,29.81,10.0,WSW,15.0,-,N/A,,Scattered Clouds,250,2012-10-09 17:14:00
12:34 PM,48.2,35.6,62,29.82,10.0,West,18.4,21.9,N/A,,Scattered Clouds,260,2012-10-09 17:34:00
12:54 PM,50.0,35.6,58,29.81,10.0,West,12.7,18.4,N/A,,Mostly Cloudy,260,2012-10-09 17:54:00
1:14 PM,51.8,35.6,54,29.81,10.0,West,18.4,23.0,N/A,,Mostly Cloudy,260,2012-10-09 18:14:00
1:34 PM,51.8,30.2,44,29.81,10.0,West,19.6,24.2,N/A,,Scattered Clouds,260,2012-10-09 18:34:00
1:54 PM,53.6,28.4,38,29.80,10.0,West,25.3,32.2,N/A,,Scattered Clouds,270,2012-10-09 18:54:00
2:14 PM,51.8,24.8,35,29.80,10.0,West,25.3,33.4,N/A,,Mostly Cloudy,280,2012-10-09 19:14:00
2:34 PM,51.8,24.8,35,29.81,10.0,West,23.0,32.2,N/A,,Unknown,280,2012-10-09 19:34:00
2:54 PM,50.0,23.0,35,29.82,10.0,West,18.4,25.3,N/A,,Unknown,280,2012-10-09 19:54:00
3:14 PM,50.0,21.2,32,29.82,10.0,WNW,19.6,28.8,N/A,,Overcast,300,2012-10-09 20:14:00
3:34 PM,48.2,21.2,34,29.83,10.0,WNW,25.3,31.1,N/A,,Overcast,290,2012-10-09 20:34:00
3:54 PM,48.2,21.2,34,29.83,10.0,West,20.7,28.8,N/A,,Overcast,280,2012-10-09 20:54:00
4:14 PM,50.0,23.0,35,29.84,10.0,West,17.3,25.3,N/A,,Mostly Cloudy,280,2012-10-09 21:14:00
4:34 PM,48.2,21.2,34,29.84,10.0,WNW,17.3,25.3,N/A,,Overcast,290,2012-10-09 21:34:00
4:54 PM,50.0,24.8,37,29.84,10.0,West,20.7,27.6,N/A,,Overcast,280,2012-10-09 21:54:00
5:14 PM,50.0,24.8,37,29.85,10.0,WNW,21.9,27.6,N/A,,Overcast,290,2012-10-09 22:14:00
5:34 PM,50.0,24.8,37,29.86,10.0,WNW,21.9,28.8,N/A,,Overcast,300,2012-10-09 22:34:00
5:54 PM,48.2,24.8,40,29.87,10.0,WNW,23.0,33.4,N/A,,Mostly Cloudy,290,2012-10-09 22:54:00
6:14 PM,48.2,24.8,40,29.88,10.0,WNW,17.3,28.8,N/A,,Mostly Cloudy,290,2012-10-09 23:14:00
6:34 PM,46.4,24.8,43,29.89,10.0,WNW,21.9,31.1,N/A,,Overcast,300,2012-10-09 23:34:00
6:54 PM,46.4,24.8,43,29.90,10.0,WNW,19.6,28.8,N/A,,Overcast,300,2012-10-09 23:54:00
7:14 PM,46.4,24.8,43,29.92,10.0,WNW,25.3,31.1,N/A,,Overcast,300,2012-10-10 00:14:00
7:34 PM,44.6,21.2,39,29.93,10.0,WNW,21.9,33.4,N/A,,Overcast,300,2012-10-10 00:34:00
7:54 PM,44.6,21.2,39,29.94,10.0,WNW,21.9,25.3,N/A,,Overcast,300,2012-10-10 00:54:00
8:14 PM,44.6,21.2,39,29.94,10.0,WNW,18.4,27.6,N/A,,Overcast,300,2012-10-10 01:14:00
8:34 PM,44.6,21.2,39,29.95,10.0,WNW,17.3,28.8,N/A,,Overcast,300,2012-10-10 01:34:00
8:54 PM,44.6,21.2,39,29.95,10.0,WNW,18.4,-,N/A,,Overcast,300,2012-10-10 01:54:00
9:14 PM,44.6,19.4,37,29.96,10.0,WNW,21.9,29.9,N/A,,Overcast,290,2012-10-10 02:14:00
9:34 PM,44.6,19.4,37,29.96,10.0,WNW,19.6,24.2,N/A,,Overcast,290,2012-10-10 02:34:00
9:54 PM,44.6,21.2,39,29.97,10.0,WNW,16.1,21.9,N/A,,Overcast,290,2012-10-10 02:54:00
10:14 PM,42.8,21.2,42,29.98,10.0,WNW,13.8,23.0,N/A,,Mostly Cloudy,290,2012-10-10 03:14:00
10:34 PM,42.8,19.4,39,29.98,10.0,WNW,11.5,-,N/A,,Clear,290,2012-10-10 03:34:00
10:54 PM,39.2,21.2,49,29.98,10.0,West,13.8,17.3,N/A,,Clear,280,2012-10-10 03:54:00
11:14 PM,39.2,19.4,45,29.99,10.0,WNW,13.8,-,N/A,,Clear,290,2012-10-10 04:14:00
11:34 PM,39.2,19.4,45,29.99,10.0,WNW,12.7,-,N/A,,Clear,290,2012-10-10 04:34:00
11:54 PM,39.2,19.4,45,29.99,10.0,West,12.7,-,N/A,,Clear,280,2012-10-10 04:54:00